Location: Bovenkerk
(52.2915°N, 4.8336°E)
Time: 17:33:40
(UTC+00:00)

STARLINK-1241 - Pass Details

Date: 09 April 2020
Orbit: 549 x 551 km, 53.0° (Epoch: 29 May)

Event Time Altitude Azimuth Distance (km) Brightness Sun altitude
Rises 19:52:19 0° 287° (WNW) 2,735 8.9 -12.5°
Reaches altitude 10° 19:54:35 10° 283° (WNW) 1,839 7.5 -12.8°
Maximum altitude 19:58:41 56° 205° (SSW) 661 3.9 -13.3°
Enters shadow 20:01:09 22° 134° (SE) 1,226 4.8 -13.6°
